Фрунзе

Киргизия     41°02′10″N   72°29′04″E
темп.,
°C
ветер,
м/с
пор.,
м/с
влажн.,
%
обл.,
%
осадки,
мм/ч
давл.,
гПа
погр.,
м
24 июня, чт
чт2400:00+22в34190 0.0 101143
03:00+20всв34230 0.0 101143
06:00+19всв33230 0.0 101030
09:00+27юв22140 0.0 1010420
12:00+33зюз55120 0.0 10071752
15:00+36зюз69100 0.0 10052946
18:00+35з7780 0.0 10033096
21:00+28зюз471410 0.0 1005129
25 июня, пт
пт2500:00+24всв4418100 0.0 100643
03:00+21в58220 0.0 1006105
06:00+20в48240 0.0 1007109
09:00+28юв44170 0.0 1006881
12:00+34юз58140 0.0 10042759
15:00+36зюз810120 0.0 10013466
18:00+36зюз89116 0.0 10003914
21:00+29юз612210 0.0 1002428
26 июня, сб
сб2600:00+25в132657 0.0 100437
03:00+21в483523 0.0 1005121
06:00+20в47370 0.0 100695
09:00+29юв34190 0.0 10061574
12:00+33ююз44130 0.0 10051785
15:00+36зюз67100 0.0 10032608
18:00+35зюз67110 0.0 10022739
21:00+28з33160 0.0 100428
27 июня, вс
вс2700:00+23всв43230 0.0 100634
03:00+21всв46280 0.0 100774
06:00+20всв34290 0.0 100755
09:00+29юв33150 0.0 1008503
12:00+35зюз43100 0.0 10061858
15:00+38зюз4590 0.0 10032274
18:00+38з5580 0.0 10022655
21:00+30з22145 0.0 100412
28 июня, пн
пн2800:00+26в34195 0.0 100648
03:00+24всв45210 0.0 100668
06:00+23всв34220 0.0 100648
09:00+32юв22120 0.0 1006485
12:00+38зюз43100 0.0 10042078
15:00+41зюз5770 0.0 10013882
18:00+41з7771 0.0 10004422
21:00+32з591782 0.0 1003182